Home   Weather   Firenze   Past weeks

Flag for Italy Past Weather in Firenze, Italy — Yesterday and Last 2 Weeks

Now
63 °F

Passing clouds.


Feels Like: 63 °F
Forecast: 46 / 56 °F
Wind: 3 mph from Southeast

Location: Florence / Peretola

Current Time: Apr 27, 2017 at 5:34:06 am

Latest Report: Apr 27, 2017 at 4:50 am


Visibility: N/A

Pressure: 29.74 "Hg

Humidity: 77%

Dew Point: 55 °F

Location of FirenzeLocation

Past Weather in Firenze — Graph

°F

Firenze Temperature Yesterday

Maximum temperature yesterday: 68 °F (at 1:20 pm)
Minimum temperature yesterday: 55 °F (at 12:20 am)
Average temperature yesterday: 62 °F

High & Low Weather Summary for the Past Weeks

 TemperatureHumidityPressure
High77 °F (Apr 12, 1:20 pm)94% (Apr 12, 5:50 am)30.39 "Hg (Apr 12, 5:50 am)
Low34 °F (Apr 20, 4:50 am)16% (Apr 20, 5:50 pm)29.74 "Hg (Apr 18, 12:50 pm)
Average57 °F62%30.01 "Hg
* Reported Apr 12 3:20 am — Apr 27 3:20 am, Firenze, Weather by CustomWeather, © 2017

Note: Actual official high and low records may vary slightly from our data, if they occured in-between our weather recording intervals... More about our weather records

Advertising

Firenze Weather History for the Previous 24 Hours

Scroll right to see more
 ConditionsComfort  
Time TempWeatherWind HumidityBarometerVisibility
3:20 am
Thu, Apr 27
63 °FPassing clouds.6 mph73%29.74 "HgN/A
2:50 am63 °FPassing clouds.6 mph73%29.77 "HgN/A
2:20 am63 °FPassing clouds.5 mph73%29.77 "HgN/A
1:50 am64 °FPassing clouds.6 mph68%29.77 "HgN/A
1:20 am63 °FPassing clouds.6 mph73%29.77 "HgN/A
12:50 am63 °FPassing clouds.3 mph73%29.80 "HgN/A
12:20 am63 °FPassing clouds.2 mph68%29.80 "HgN/A
11:50 pm
Wed, Apr 26
63 °FPassing clouds.6 mph68%29.80 "HgN/A
11:20 pm63 °FPassing clouds.6 mph68%29.80 "HgN/A
10:50 pm63 °FPassing clouds.2 mph68%29.80 "HgN/A
10:20 pm63 °FPassing clouds.3 mph68%29.80 "HgN/A
9:50 pm64 °FPartly cloudy.6 mph64%29.80 "HgN/A
9:20 pm64 °FPartly cloudy.7 mph64%29.80 "HgN/A
8:50 pm64 °FPartly cloudy.7 mph64%29.80 "HgN/A
7:50 pm64 °FBroken clouds.7 mph64%29.80 "HgN/A
7:20 pm64 °FBroken clouds.10 mph64%29.77 "HgN/A
6:50 pm66 °FBroken clouds.12 mph60%29.77 "HgN/A
6:20 pm66 °FBroken clouds.7 mph60%29.77 "HgN/A
5:50 pm66 °FBroken clouds.7 mph60%29.77 "HgN/A
5:20 pm64 °FBroken clouds.7 mph68%29.77 "HgN/A
4:50 pm64 °FBroken clouds.10 mph68%29.80 "HgN/A
4:20 pm66 °FBroken clouds.9 mph60%29.80 "HgN/A
3:50 pm66 °FBroken clouds.12 mph56%29.80 "HgN/A
3:20 pm66 °FBroken clouds.13 mph56%29.80 "HgN/A
2:50 pm68 °FBroken clouds.12 mph56%29.80 "HgN/A
2:20 pm66 °FBroken clouds.14 mph56%29.80 "HgN/A
1:50 pm68 °FBroken clouds.15 mph53%29.80 "HgN/A
1:20 pm68 °FLight rain. Broken clouds.10 mph56%29.80 "HgN/A
12:50 pm66 °FPartly sunny.10 mph56%29.80 "HgN/A
12:20 pm66 °FPartly sunny.9 mph56%29.80 "HgN/A
11:50 am66 °FPartly sunny.12 mph56%29.80 "HgN/A
11:20 am63 °FPartly sunny.12 mph59%29.80 "HgN/A
10:50 am61 °FPartly sunny.13 mph59%29.80 "HgN/A
10:20 am59 °FPartly sunny.10 mph59%29.83 "HgN/A
9:50 am59 °FPartly sunny.9 mph59%29.83 "HgN/A
9:20 am59 °FPartly sunny.10 mph59%29.83 "HgN/A
8:50 am59 °FPartly sunny.10 mph59%29.83 "HgN/A
8:20 am57 °FPartly sunny.13 mph63%29.86 "HgN/A
7:50 am57 °FPartly sunny.14 mph63%29.83 "HgN/A
7:20 am57 °FPartly sunny.14 mph67%29.83 "HgN/A
6:50 am59 °FPartly sunny.12 mph59%29.83 "HgN/A
6:20 am59 °FPartly sunny.10 mph63%29.83 "HgN/A
5:50 am57 °FPassing clouds.13 mph72%29.83 "HgN/A
5:20 am59 °FPassing clouds.12 mph63%29.86 "HgN/A
Weather by CustomWeather, © 2017

See weather overviewHow to use our weather pages